Dundee, United Kingdom

1:08 AM GMT on March 24, 2017 (GMT +0000)
Dundee

Weather History for EGPN - October, 2012

Change the Weather History Date:

Tuesday, October 16, 2012

  Actual Average Record
Temperature  
Mean Temperature 40 °F -  
Max Temperature 44 °F 50 °F 59 °F (2001)
Min Temperature 35 °F 43 °F 35 °F (2002)
Degree Days  
Heating Degree Days 26    
Moisture  
Dew Point 36 °F    
Average Humidity 85    
Maximum Humidity 93    
Minimum Humidity 76    
Precipitation  
Precipitation 0.00 in - - ()
Sea Level Pressure  
Sea Level Pressure 29.35 in    
Wind  
Wind Speed 7 mph ()    
Max Wind Speed 13 mph    
Max Gust Speed -    
Visibility 6.1 miles    
Events Rain    
Averages and records for this station are not official NWS values.
T = Trace of Precipitation, MM = Missing Value Source: Averaged Metar Reports

Daily Weather History Graph

Daily Weather History Graph

Search for Another Location

Airport or City:

Trip Planner

Search our weather history database for the weather conditions in past years. The results will help you decide how hot, cold, wet, or windy it might be!

Date:

Astronomy

Oct. 16, 2012 Rise Set
Actual Time 7:46 AM BST 6:07 PM BST
Civil Twilight 7:08 AM BST 6:45 PM BST
Nautical Twilight 6:25 AM BST 7:28 PM BST
Astronomical Twilight 5:41 AM BST 8:12 PM BST
Moon 9:14 AM BST (10/16) 6:14 PM BST (10/16)
Length of Visible Light 11h 36m
Length of Day
10h 20m
New Moon, 1% of the Moon is Illuminated
Oct 16
New Moon
Oct 22
First Quarter
Oct 29
Full
Nov 7
Last Quarter
Nov 13
New

Hourly Weather History & Observations

Time (BST) Temp. Windchill Dew Point Humidity Pressure Visibility Wind Dir Wind Speed Gust Speed Precip Events Conditions
6:20 AM 39.2 °F 31.6 °F 35.6 °F 87% 29.27 in 6.2 mi NNE 12.7 mph - N/A Rain Light Rain
6:50 AM 39.2 °F 33.6 °F 35.6 °F 87% 29.27 in 6.2 mi NE 8.1 mph - N/A Rain Light Rain
7:20 AM 39.2 °F 34.2 °F 35.6 °F 87% 29.27 in 6.2 mi NNE 6.9 mph - N/A Rain Rain
7:50 AM 37.4 °F 30.8 °F 33.8 °F 87% 29.27 in 6.2 mi NE 9.2 mph - N/A Rain Rain
8:20 AM 39.2 °F 33.6 °F 35.6 °F 87% 29.27 in 5.0 mi NNE 8.1 mph - N/A Rain Rain
8:50 AM 39.2 °F 34.2 °F 35.6 °F 87% 29.27 in 5.6 mi North 6.9 mph - N/A Rain Rain
9:20 AM 39.2 °F 34.2 °F 35.6 °F 87% 29.27 in 5.6 mi North 6.9 mph - N/A Rain Rain
9:50 AM 39.2 °F 33.0 °F 35.6 °F 87% 29.27 in 5.6 mi North 9.2 mph - N/A Rain Rain
10:20 AM 39.2 °F 33.6 °F 35.6 °F 87% 29.30 in 5.6 mi North 8.1 mph - N/A Rain Light Rain
10:50 AM 39.2 °F 33.6 °F 35.6 °F 87% 29.30 in 6.2 mi NNE 8.1 mph - N/A Rain Light Rain
11:20 AM 41.0 °F 38.0 °F 35.6 °F 81% 29.30 in 6.2 mi North 4.6 mph - N/A Rain Rain
11:50 AM 41.0 °F 36.4 °F 35.6 °F 81% 29.30 in 6.2 mi NNW 6.9 mph - N/A Rain Rain
12:20 PM 41.0 °F 37.1 °F 37.4 °F 87% 29.33 in 6.2 mi NNW 5.8 mph - N/A Rain Rain
12:50 PM 41.0 °F 35.8 °F 35.6 °F 81% 29.33 in 6.2 mi NW 8.1 mph - N/A   Mostly Cloudy
1:20 PM 41.0 °F 36.4 °F 35.6 °F 81% 29.33 in 6.2 mi NW 6.9 mph - N/A   Scattered Clouds
1:50 PM 42.8 °F 37.5 °F 37.4 °F 81% 29.33 in 6.2 mi NW 9.2 mph - N/A   Scattered Clouds
2:20 PM 42.8 °F 38.6 °F 37.4 °F 81% 29.36 in 6.2 mi NW 6.9 mph - N/A   Mostly Cloudy
2:50 PM 44.6 °F 40.2 °F 37.4 °F 76% 29.36 in 6.2 mi WNW 8.1 mph - N/A   Scattered Clouds
3:20 PM 42.8 °F 38.0 °F 35.6 °F 76% 29.36 in 6.2 mi WNW 8.1 mph - N/A   Scattered Clouds
3:50 PM 42.8 °F 38.0 °F 37.4 °F 81% 29.36 in 6.2 mi West 8.1 mph - N/A   Scattered Clouds
4:20 PM 42.8 °F 38.0 °F 37.4 °F 81% 29.39 in 6.2 mi West 8.1 mph - N/A   Scattered Clouds
4:50 PM 44.6 °F 40.2 °F 37.4 °F 76% 29.39 in 6.2 mi West 8.1 mph - N/A   Scattered Clouds
5:20 PM 42.8 °F 37.5 °F 37.4 °F 81% 29.39 in 6.2 mi West 9.2 mph - N/A   Scattered Clouds
5:50 PM 42.8 °F 36.6 °F 37.4 °F 81% 29.39 in 6.2 mi West 11.5 mph - N/A   Partly Cloudy
6:20 PM 39.2 °F 32.5 °F 35.6 °F 87% 29.42 in 6.2 mi West 10.4 mph - N/A   Partly Cloudy
6:50 PM 39.2 °F 35.0 °F 35.6 °F 87% 29.42 in 6.2 mi NW 5.8 mph - N/A   Partly Cloudy
7:20 PM 37.4 °F 33.8 °F 33.8 °F 87% 29.44 in - West 4.6 mph - N/A   Clear
7:50 PM 39.2 °F - 35.6 °F 87% 29.44 in - WNW 2.3 mph - N/A   Clear
8:20 PM 35.6 °F 31.7 °F 33.8 °F 93% 29.44 in - WNW 4.6 mph - N/A   Clear
8:50 PM 35.6 °F 31.7 °F 33.8 °F 93% 29.47 in - WNW 4.6 mph - N/A   Clear
9:20 PM 35.6 °F 30.7 °F 33.8 °F 93% 29.47 in - WNW 5.8 mph - N/A   Clear
9:50 PM 35.6 °F 32.8 °F 33.8 °F 93% 29.47 in - West 3.5 mph - N/A   Clear